M I D A S
Marine Information and Data Acquisition System
Tripno 1216 of the Zeeleeuw from 2007-02-22 07:44:22 to 2007-02-22 15:07:47
Back to CruiseResearch ActivitiesStationsMapUnderway DataData graphs

EquipmentUnitsComments
TimeDGPSUTC
LatitudeDGPSDM.mWGS84
LongitudeDGPSDM.mWGS84
SpeedMeteo Stationm/sRelative wind speed
DirectionMeteo StationdegRelative wind direction
TemperatureMeteo Stationdeg CelciusAir temperature
PressureMeteo StationPaAtmospheric pressure
HumidityMeteo Station%Relative humidity
Missing or incorrect values are displayed as -999
Metereological data collected by the RV Zeeleeuw from 2007-02-22 07:45:23 to 2007-02-22 15:16:21
                                                                                    Next 1000 lines
Time Latitude Longitude Speed Direction Temperature Pressure Humidity
2007-02-22 07:45:32 51°13.597 2°56.093 3.4 354 5.9 100800 92
2007-02-22 07:45:38 51°13.598 2°56.091 4.3 358 5.9 100800 92
2007-02-22 07:45:43 51°13.599 2°56.088 2.7 10 5.9 100800 92
2007-02-22 07:45:48 51°13.6 2°56.085 2.9 14 5.9 100800 92
2007-02-22 07:45:53 51°13.601 2°56.081 2.7 20 5.9 100800 92
2007-02-22 07:45:58 51°13.602 2°56.077 2.2 5 5.9 100800 92
2007-02-22 07:46:04 51°13.604 2°56.071 1.9 25 5.9 100800 92
2007-02-22 07:46:10 51°13.606 2°56.063 2.5 23 5.9 100800 92
2007-02-22 07:46:15 51°13.608 2°56.056 1.8 16 5.8 100800 92
2007-02-22 07:46:21 51°13.611 2°56.047 1.3 4 5.8 100800 92
2007-02-22 07:46:26 51°13.614 2°56.039 1.4 6 5.9 100800 92
2007-02-22 07:46:32 51°13.617 2°56.028 1.3 20 5.9 100800 92
2007-02-22 07:46:36 51°13.619 2°56.021 1.5 29 5.9 100800 92
2007-02-22 07:46:42 51°13.622 2°56.011 1.8 31 5.9 100800 92
2007-02-22 07:46:47 51°13.624 2°56.001 2.6 31 5.9 100800 92
2007-02-22 07:46:52 51°13.627 2°55.992 2.8 23 5.9 100800 92
2007-02-22 07:46:56 51°13.63 2°55.984 2.8 10 5.9 100800 92
2007-02-22 07:47:02 51°13.633 2°55.972 2.5 9 5.9 100800 92
2007-02-22 07:47:06 51°13.636 2°55.964 2.3 28 5.9 100800 92
2007-02-22 07:47:12 51°13.64 2°55.952 1.8 355 5.9 100800 92
2007-02-22 07:47:17 51°13.644 2°55.942 3 24 5.9 100800 92
2007-02-22 07:47:22 51°13.647 2°55.932 2.6 21 5.9 100800 92
2007-02-22 07:47:26 51°13.65 2°55.924 4.9 8 5.9 100800 92
2007-02-22 07:47:31 51°13.653 2°55.915 3.3 359 5.9 100800 92
2007-02-22 07:47:36 51°13.657 2°55.906 2.8 24 5.9 100800 92
2007-02-22 07:47:42 51°13.661 2°55.895 2 28 5.9 100800 92
2007-02-22 07:47:46 51°13.664 2°55.888 2.3 17 5.9 100800 92
2007-02-22 07:47:51 51°13.668 2°55.879 1.7 1 5.9 100800 92
2007-02-22 07:47:56 51°13.671 2°55.87 2.4 40 5.9 100800 92
2007-02-22 07:48:02 51°13.675 2°55.859 2 75 5.9 100800 92
2007-02-22 07:48:07 51°13.679 2°55.851 2 28 5.9 100800 92
2007-02-22 07:48:12 51°13.683 2°55.842 1.8 17 5.9 100800 92
2007-02-22 07:48:16 51°13.686 2°55.835 2.1 33 5.9 100800 92
2007-02-22 07:48:22 51°13.69 2°55.825 3.9 16 5.9 100800 92
2007-02-22 07:48:27 51°13.694 2°55.817 3.5 19 5.9 100800 92
2007-02-22 07:48:32 51°13.698 2°55.809 3.7 7 5.9 100800 92
2007-02-22 07:48:36 51°13.701 2°55.803 3.6 9 5.9 100800 92
2007-02-22 07:48:42 51°13.706 2°55.793 2.6 16 5.9 100800 92
2007-02-22 07:48:47 51°13.711 2°55.785 2.2 16 5.9 100800 92
2007-02-22 07:48:52 51°13.716 2°55.778 1.9 9 5.9 100800 92
2007-02-22 07:48:57 51°13.72 2°55.77 2.6 21 5.9 100800 92
2007-02-22 07:49:02 51°13.725 2°55.763 3 21 5.9 100800 92
2007-02-22 07:49:06 51°13.729 2°55.757 3.4 25 5.9 100800 92
2007-02-22 07:49:12 51°13.735 2°55.749 3.3 23 5.9 100800 92
2007-02-22 07:49:17 51°13.74 2°55.742 2.6 19 5.9 100800 92
2007-02-22 07:49:22 51°13.746 2°55.736 3.3 6 5.9 100800 92
2007-02-22 07:49:26 51°13.75 2°55.731 1.9 1 5.9 100800 92
2007-02-22 07:49:31 51°13.755 2°55.724 1.8 4 5.9 100800 92
2007-02-22 07:49:37 51°13.762 2°55.717 1.7 344 5.9 100800 92
2007-02-22 07:49:42 51°13.768 2°55.711 1.8 284 5.9 100800 92
2007-02-22 07:49:46 51°13.773 2°55.707 3.9 350 5.9 100800 92
2007-02-22 07:49:51 51°13.779 2°55.701 3.3 279 5.9 100800 92
2007-02-22 07:49:57 51°13.787 2°55.694 4 348 5.9 100800 92
2007-02-22 07:50:02 51°13.793 2°55.689 3.3 350 5.9 100800 92
2007-02-22 07:50:06 51°13.799 2°55.684 2.2 359 5.9 100810 92
2007-02-22 07:50:12 51°13.806 2°55.677 2 12 5.9 100810 92
2007-02-22 07:50:16 51°13.811 2°55.673 1.7 2 5.9 100810 92
2007-02-22 07:50:22 51°13.819 2°55.665 1.8 7 5.9 100810 92
2007-02-22 07:50:27 51°13.826 2°55.659 1.8 7 5.9 100800 92
2007-02-22 07:50:32 51°13.833 2°55.652 1.7 282 5.9 100800 92
2007-02-22 07:50:36 51°13.838 2°55.647 2.6 15 5.9 100810 92
2007-02-22 07:50:42 51°13.845 2°55.64 2.2 9 5.9 100810 92
2007-02-22 07:50:47 51°13.851 2°55.634 1.8 346 5.9 100800 92
2007-02-22 07:50:52 51°13.856 2°55.629 1.9 1 5.9 100800 92
2007-02-22 07:50:56 51°13.859 2°55.626 2.3 353 5.9 100800 92
2007-02-22 07:51:01 51°13.862 2°55.623 2.4 352 5.9 100800 92
2007-02-22 07:51:06 51°13.865 2°55.62 2.9 350 5.9 100800 92
2007-02-22 07:51:11 51°13.867 2°55.619 3.3 286 5.9 100800 92
2007-02-22 07:51:15 51°13.867 2°55.619 3.5 341 5.9 100800 92
2007-02-22 07:51:20 51°13.868 2°55.619 4.4 280 5.9 100800 92
2007-02-22 07:51:25 51°13.868 2°55.619 3.7 342 5.9 100800 92
2007-02-22 07:51:30 51°13.868 2°55.618 3.7 286 5.9 100800 92
2007-02-22 07:51:35 51°13.869 2°55.618 2.5 342 5.9 100800 92
2007-02-22 07:51:40 51°13.87 2°55.617 3.3 282 5.9 100800 92
2007-02-22 07:51:44 51°13.871 2°55.617 3.2 328 6 100800 92
2007-02-22 07:51:49 51°13.874 2°55.616 3.1 279 6 100800 92
2007-02-22 07:51:54 51°13.877 2°55.616 2.4 327 6 100800 92
2007-02-22 07:51:59 51°13.88 2°55.614 2.3 285 6 100800 92
2007-02-22 07:52:04 51°13.884 2°55.614 2.8 325 6 100800 92
2007-02-22 07:52:10 51°13.889 2°55.613 2.2 286 6 100800 92
2007-02-22 07:52:15 51°13.894 2°55.613 2.4 25 6 100800 92
2007-02-22 07:52:21 51°13.9 2°55.612 1.8 282 6 100800 92
2007-02-22 07:52:26 51°13.906 2°55.612 1.5 316 6 100800 92
2007-02-22 07:52:32 51°13.913 2°55.612 1.8 282 6 100800 92
2007-02-22 07:52:36 51°13.917 2°55.613 1.1 22 6 100800 92
2007-02-22 07:52:42 51°13.924 2°55.613 1.4 286 6 100800 92
2007-02-22 07:52:47 51°13.93 2°55.613 1.7 317 6 100800 92
2007-02-22 07:52:52 51°13.935 2°55.613 1.9 286 6 100800 92
2007-02-22 07:52:56 51°13.939 2°55.614 1.6 322 6 100800 92
2007-02-22 07:53:01 51°13.944 2°55.614 1.5 279 6 100800 92
2007-02-22 07:53:06 51°13.949 2°55.614 1.7 25 6 100800 92
2007-02-22 07:53:11 51°13.953 2°55.615 1.8 281 6 100800 92
2007-02-22 07:53:16 51°13.956 2°55.615 2.9 316 6 100800 92
2007-02-22 07:53:21 51°13.959 2°55.616 2.6 280 6 100800 92
2007-02-22 07:53:26 51°13.962 2°55.615 2.8 329 6 100810 92
2007-02-22 07:53:30 51°13.962 2°55.615 3.6 285 6 100810 92
2007-02-22 07:53:35 51°13.963 2°55.614 3.3 26 6 100800 92
2007-02-22 07:53:40 51°13.962 2°55.611 4.8 284 6 100800 92
2007-02-22 07:53:44 51°13.961 2°55.609 4.3 26 6 100800 92
2007-02-22 07:53:50 51°13.96 2°55.603 3.9 287 6 100800 92
2007-02-22 07:53:54 51°13.959 2°55.599 4.2 18 6 100800 92
2007-02-22 07:53:59 51°13.958 2°55.593 4.3 279 6 100800 92
2007-02-22 07:54:03 51°13.958 2°55.587 5.1 246 6.1 100800 92
2007-02-22 07:54:08 51°13.958 2°55.578 3.9 279 6.1 100800 92
2007-02-22 07:54:13 51°13.959 2°55.569 3.5 258 6 100800 92
2007-02-22 07:54:18 51°13.961 2°55.56 3.3 280 6 100800 92
2007-02-22 07:54:23 51°13.963 2°55.551 2 264 6.1 100800 92
2007-02-22 07:54:28 51°13.967 2°55.542 2.3 81 6.1 100800 92
2007-02-22 07:54:33 51°13.971 2°55.534 2.7 23 6.1 100800 92
2007-02-22 07:54:38 51°13.975 2°55.527 2.9 80 6.1 100800 92
2007-02-22 07:54:43 51°13.98 2°55.52 2.5 24 6.1 100800 92
2007-02-22 07:54:48 51°13.985 2°55.515 1.5 78 6.1 100800 92
2007-02-22 07:54:53 51°13.99 2°55.51 0.9 23 6.1 100810 92
2007-02-22 07:54:58 51°13.995 2°55.505 0.7 352 6.1 100810 92
2007-02-22 07:55:03 51°14.003 2°55.5 0.9 18 6.1 100800 92
2007-02-22 07:55:08 51°14.011 2°55.494 1.2 353 6.1 100800 92
2007-02-22 07:55:13 51°14.021 2°55.488 1 319 6.1 100800 92
2007-02-22 07:55:18 51°14.031 2°55.481 1.6 280 6.1 100800 92
2007-02-22 07:55:23 51°14.043 2°55.473 2.2 330 6.1 100800 92
2007-02-22 07:55:28 51°14.056 2°55.465 2.3 283 6.1 100800 92
2007-02-22 07:55:33 51°14.07 2°55.457 2.2 322 6.1 100800 92
2007-02-22 07:55:38 51°14.084 2°55.448 2.3 284 6.1 100800 92
2007-02-22 07:55:43 51°14.098 2°55.439 2.5 320 6.1 100800 92
2007-02-22 07:55:48 51°14.113 2°55.43 3 281 6.1 100800 92
2007-02-22 07:55:53 51°14.128 2°55.421 3.1 327 6.1 100800 92
2007-02-22 07:55:58 51°14.143 2°55.41 2.5 279 6.1 100800 92
2007-02-22 07:56:03 51°14.158 2°55.398 2.9 30 6.1 100800 92
2007-02-22 07:56:08 51°14.173 2°55.386 5.2 280 6.1 100800 92
2007-02-22 07:56:13 51°14.188 2°55.373 4.6 244 6.1 100800 92
2007-02-22 07:56:18 51°14.202 2°55.359 4.6 284 6.1 100800 92
2007-02-22 07:56:23 51°14.215 2°55.344 5.4 252 6.1 100800 92
2007-02-22 07:56:28 51°14.228 2°55.328 3.2 281 6.1 100800 92
2007-02-22 07:56:33 51°14.239 2°55.311 3.9 20 6.1 100800 92
2007-02-22 07:56:38 51°14.25 2°55.293 3.9 285 6.1 100800 92
2007-02-22 07:56:43 51°14.261 2°55.276 4.4 20 6.1 100800 92
2007-02-22 07:56:48 51°14.271 2°55.257 4.8 285 6.1 100800 92
2007-02-22 07:56:53 51°14.281 2°55.239 4.3 24 6.1 100810 92
2007-02-22 07:56:58 51°14.29 2°55.22 4.7 281 6.1 100810 92
2007-02-22 07:57:03 51°14.299 2°55.201 5.9 253 6.1 100800 92
2007-02-22 07:57:08 51°14.308 2°55.182 5.8 285 6.1 100800 92
2007-02-22 07:57:13 51°14.317 2°55.162 3.5 27 6.1 100800 92
2007-02-22 07:57:18 51°14.326 2°55.143 4.1 280 6.1 100800 92
2007-02-22 07:57:23 51°14.334 2°55.123 4 319 6.1 100800 92
2007-02-22 07:57:28 51°14.343 2°55.103 3.6 286 6.1 100800 92
2007-02-22 07:57:33 51°14.352 2°55.082 5.4 25 6.1 100800 92
2007-02-22 07:57:38 51°14.363 2°55.061 5.1 281 6.1 100800 92
2007-02-22 07:57:43 51°14.373 2°55.04 6.2 25 6.1 100800 92
2007-02-22 07:57:48 51°14.385 2°55.019 6.4 284 6.1 100800 92
2007-02-22 07:57:53 51°14.397 2°54.997 5.3 32 6.1 100800 92
2007-02-22 07:57:58 51°14.409 2°54.976 4.8 280 6.1 100800 92
2007-02-22 07:58:03 51°14.422 2°54.954 5.4 33 6.1 100800 92
2007-02-22 07:58:08 51°14.435 2°54.932 5.4 286 6.1 100800 92
2007-02-22 07:58:13 51°14.448 2°54.91 4.8 18 6.1 100790 92
2007-02-22 07:58:18 51°14.461 2°54.888 4.5 285 6.1 100790 92
2007-02-22 07:58:23 51°14.475 2°54.867 5.1 246 6.1 100790 92
2007-02-22 07:58:28 51°14.489 2°54.847 6.3 284 6.1 100790 92
2007-02-22 07:58:33 51°14.503 2°54.828 5.1 19 6.1 100790 92
2007-02-22 07:58:38 51°14.518 2°54.808 4.7 283 6.1 100790 92
2007-02-22 07:58:43 51°14.533 2°54.79 4.4 258 6.1 100790 92
2007-02-22 07:58:48 51°14.548 2°54.773 2.9 281 6.1 100790 92
2007-02-22 07:58:53 51°14.564 2°54.755 4.3 252 6.1 100800 92
2007-02-22 07:58:58 51°14.579 2°54.738 3.1 281 6.1 100800 92
2007-02-22 07:59:03 51°14.594 2°54.72 6 22 6.1 100800 92
2007-02-22 07:59:08 51°14.609 2°54.702 7.1 287 6.1 100800 92
2007-02-22 07:59:13 51°14.624 2°54.683 5.9 249 6.1 100790 92
2007-02-22 07:59:18 51°14.639 2°54.664 6.6 287 6.1 100790 92
2007-02-22 07:59:23 51°14.653 2°54.644 5.2 252 6.1 100800 92
2007-02-22 07:59:28 51°14.667 2°54.624 5.8 282 6.1 100800 92
2007-02-22 07:59:33 51°14.681 2°54.603 3.8 245 6.1 100780 92
2007-02-22 07:59:38 51°14.695 2°54.582 4.2 284 6.1 100780 92
2007-02-22 07:59:43 51°14.709 2°54.561 4.1 250 6.1 100790 92
2007-02-22 07:59:48 51°14.723 2°54.54 3.9 279 6.1 100790 92
2007-02-22 07:59:53 51°14.737 2°54.519 3.4 249 6.1 100800 92
2007-02-22 07:59:58 51°14.751 2°54.497 5.3 284 6.1 100800 92
2007-02-22 08:00:03 51°14.765 2°54.476 4.3 250 6.1 100790 92
2007-02-22 08:00:08 51°14.779 2°54.455 5.1 281 6.1 100790 92
2007-02-22 08:00:13 51°14.793 2°54.434 5.3 250 6.1 100790 92
2007-02-22 08:00:18 51°14.806 2°54.412 5.4 281 6.1 100790 92
2007-02-22 08:00:23 51°14.82 2°54.39 6.1 250 6.2 100780 92
2007-02-22 08:00:28 51°14.833 2°54.368 6.1 279 6.2 100780 92
2007-02-22 08:00:33 51°14.846 2°54.346 6.2 250 6.1 100790 92
2007-02-22 08:00:38 51°14.859 2°54.323 6 280 6.1 100790 92
2007-02-22 08:00:43 51°14.872 2°54.3 6.3 249 6.2 100790 92
2007-02-22 08:00:48 51°14.885 2°54.278 6 280 6.2 100790 92
2007-02-22 08:00:53 51°14.899 2°54.256 5.3 246 6.2 100780 92
2007-02-22 08:00:58 51°14.912 2°54.234 6.9 285 6.2 100780 92
2007-02-22 08:01:03 51°14.925 2°54.212 6.9 253 6.2 100780 92
2007-02-22 08:01:08 51°14.939 2°54.19 5.8 279 6.2 100780 92
2007-02-22 08:01:13 51°14.952 2°54.169 6.4 250 6.2 100790 92
2007-02-22 08:01:18 51°14.965 2°54.147 7.6 286 6.2 100790 92
2007-02-22 08:01:23 51°14.978 2°54.125 6.6 256 6.2 100780 92
2007-02-22 08:01:28 51°14.991 2°54.103 7.2 -999 6.2 100780 92
2007-02-22 08:01:33 51°15.003 2°54.081 6.6 251 6.2 100790 92
2007-02-22 08:01:38 51°15.016 2°54.059 5.8 284 6.2 100790 92
2007-02-22 08:01:43 51°15.029 2°54.036 5.3 248 6.2 100780 92
2007-02-22 08:01:48 51°15.042 2°54.013 5.8 287 6.2 100780 92
2007-02-22 08:01:53 51°15.055 2°53.991 4.7 252 6.2 100790 92
2007-02-22 08:01:58 51°15.068 2°53.969 5.5 279 6.2 100790 92
2007-02-22 08:02:03 51°15.082 2°53.947 5.1 22 6.2 100790 92
2007-02-22 08:02:08 51°15.095 2°53.925 5.5 285 6.2 100790 92
2007-02-22 08:02:13 51°15.109 2°53.904 5.6 251 6.2 100780 92
2007-02-22 08:02:18 51°15.122 2°53.883 6.2 282 6.2 100780 92
2007-02-22 08:02:23 51°15.136 2°53.862 5.5 257 6.2 100780 92
2007-02-22 08:02:28 51°15.15 2°53.841 5.7 283 6.2 100780 92
2007-02-22 08:02:33 51°15.164 2°53.82 6 259 6.2 100790 92
2007-02-22 08:02:38 51°15.177 2°53.799 5.5 280 6.2 100790 92
2007-02-22 08:02:43 51°15.191 2°53.778 5.3 20 6.2 100790 92
2007-02-22 08:02:48 51°15.205 2°53.757 6.4 283 6.2 100790 92
2007-02-22 08:02:53 51°15.219 2°53.736 7 254 6.2 100790 92
2007-02-22 08:02:58 51°15.233 2°53.715 5.4 282 6.2 100790 92
2007-02-22 08:03:03 51°15.246 2°53.695 4.6 259 6.3 100790 92
2007-02-22 08:03:08 51°15.261 2°53.674 4.7 280 6.3 100790 92
2007-02-22 08:03:13 51°15.275 2°53.653 4.7 256 6.3 100790 92
2007-02-22 08:03:18 51°15.288 2°53.632 5 280 6.3 100790 92
2007-02-22 08:03:23 51°15.303 2°53.612 4.5 250 6.3 100780 92
2007-02-22 08:03:28 51°15.317 2°53.591 5.7 284 6.3 100780 92
2007-02-22 08:03:33 51°15.332 2°53.573 5 253 6.3 100780 92
2007-02-22 08:03:38 51°15.347 2°53.554 5 286 6.3 100780 92
2007-02-22 08:03:43 51°15.363 2°53.537 5 246 6.3 100780 92
2007-02-22 08:03:48 51°15.378 2°53.519 5.1 285 6.3 100780 92
2007-02-22 08:03:53 51°15.394 2°53.502 6.6 257 6.3 100790 92
2007-02-22 08:03:58 51°15.409 2°53.485 6.2 283 6.3 100790 92
2007-02-22 08:04:03 51°15.426 2°53.47 2.9 263 6.3 100790 92
2007-02-22 08:04:08 51°15.442 2°53.456 4.3 280 6.3 100790 92
2007-02-22 08:04:13 51°15.459 2°53.442 3.7 265 6.3 100790 92
2007-02-22 08:04:18 51°15.475 2°53.429 3.8 286 6.3 100790 92
2007-02-22 08:04:23 51°15.492 2°53.416 3.7 269 6.3 100790 92
2007-02-22 08:04:28 51°15.51 2°53.405 3.1 280 6.3 100790 92
2007-02-22 08:04:33 51°15.527 2°53.394 3.1 269 6.3 100790 92
2007-02-22 08:04:38 51°15.545 2°53.385 2.6 280 6.3 100790 92
2007-02-22 08:04:43 51°15.562 2°53.375 3.2 29 6.3 100790 92
2007-02-22 08:04:48 51°15.579 2°53.366 2.2 80 6.3 100790 92
2007-02-22 08:04:53 51°15.597 2°53.357 2.8 22 6.3 100790 92
2007-02-22 08:04:58 51°15.615 2°53.349 2.2 80 6.3 100790 92
2007-02-22 08:05:03 51°15.632 2°53.34 1.7 27 6.3 100790 92
2007-02-22 08:05:08 51°15.65 2°53.331 1.7 282 6.3 100790 92
2007-02-22 08:05:13 51°15.667 2°53.322 1.9 262 6.3 100790 92
2007-02-22 08:05:18 51°15.685 2°53.313 1.9 280 6.3 100790 92
2007-02-22 08:05:23 51°15.702 2°53.304 2.5 264 6.3 100790 92
2007-02-22 08:05:28 51°15.72 2°53.294 3.5 280 6.3 100790 92
2007-02-22 08:05:33 51°15.737 2°53.285 1.7 267 6.3 100790 92
2007-02-22 08:05:38 51°15.755 2°53.276 2.8 282 6.3 100790 92
2007-02-22 08:05:43 51°15.772 2°53.267 3.2 23 6.3 100790 92
2007-02-22 08:05:48 51°15.789 2°53.257 2.7 78 6.3 100790 92
2007-02-22 08:05:53 51°15.807 2°53.248 2.8 267 6.3 100790 92
2007-02-22 08:05:58 51°15.825 2°53.238 3.5 282 6.3 100790 92
2007-02-22 08:06:03 51°15.842 2°53.229 3.1 24 6.4 100790 92
2007-02-22 08:06:08 51°15.86 2°53.22 3.2 80 6.4 100790 92
2007-02-22 08:06:13 51°15.877 2°53.21 3.8 25 6.4 100790 92
2007-02-22 08:06:18 51°15.894 2°53.201 2.9 79 6.4 100790 92
2007-02-22 08:06:23 51°15.912 2°53.192 3.4 19 6.4 100790 92
2007-02-22 08:06:28 51°15.929 2°53.182 2.8 75 6.4 100790 92
2007-02-22 08:06:33 51°15.947 2°53.173 3.4 26 6.4 100790 92
2007-02-22 08:06:38 51°15.964 2°53.164 2.7 74 6.4 100790 92
2007-02-22 08:06:43 51°15.982 2°53.155 4 20 6.4 100790 92
2007-02-22 08:06:48 51°15.999 2°53.145 2.9 81 6.4 100790 92
2007-02-22 08:06:53 51°16.017 2°53.136 2.5 20 6.4 100790 92
2007-02-22 08:06:58 51°16.035 2°53.127 3.1 74 6.4 100790 92
2007-02-22 08:07:03 51°16.052 2°53.118 3.4 24 6.4 100790 92
2007-02-22 08:07:08 51°16.069 2°53.109 3.1 78 6.4 100790 92
2007-02-22 08:07:13 51°16.087 2°53.099 3.3 27 6.4 100780 92
2007-02-22 08:07:18 51°16.104 2°53.09 2.4 13 6.4 100780 92
2007-02-22 08:07:23 51°16.121 2°53.081 2.6 41 6.4 100790 92
2007-02-22 08:07:28 51°16.139 2°53.071 2.4 284 6.4 100790 92
2007-02-22 08:07:33 51°16.156 2°53.062 3.2 20 6.4 100790 92
2007-02-22 08:07:38 51°16.174 2°53.052 2.1 76 6.4 100790 92
2007-02-22 08:07:43 51°16.191 2°53.043 2.1 26 6.4 100780 92
2007-02-22 08:07:48 51°16.209 2°53.033 2.8 79 6.4 100780 92
2007-02-22 08:07:53 51°16.226 2°53.024 2.4 19 6.4 100790 92
2007-02-22 08:07:58 51°16.243 2°53.014 2.6 76 6.4 100790 92
2007-02-22 08:08:03 51°16.261 2°53.004 1.9 28 6.4 100780 92
2007-02-22 08:08:08 51°16.278 2°52.995 2.2 285 6.4 100780 92
2007-02-22 08:08:13 51°16.296 2°52.985 2.9 269 6.4 100780 92
2007-02-22 08:08:18 51°16.313 2°52.976 2.8 286 6.4 100780 92
2007-02-22 08:08:23 51°16.33 2°52.966 2.6 30 6.4 100780 92
2007-02-22 08:08:28 51°16.348 2°52.956 2.5 -999 6.4 100780 92
2007-02-22 08:08:33 51°16.365 2°52.946 2.6 263 6.4 100780 92
2007-02-22 08:08:38 51°16.383 2°52.937 1.7 282 6.4 100780 92
2007-02-22 08:08:43 51°16.4 2°52.927 2.2 270 6.5 100780 92
2007-02-22 08:08:48 51°16.418 2°52.917 2 13 6.5 100780 92
2007-02-22 08:08:53 51°16.435 2°52.908 2.4 270 6.5 100780 92
2007-02-22 08:08:58 51°16.452 2°52.898 1.6 281 6.5 100780 92
2007-02-22 08:09:03 51°16.47 2°52.889 1.9 269 6.4 100780 92
2007-02-22 08:09:08 51°16.487 2°52.879 2.1 287 6.4 100780 92
2007-02-22 08:09:13 51°16.505 2°52.87 3.4 30 6.5 100780 92
2007-02-22 08:09:18 51°16.522 2°52.86 3.6 77 6.5 100780 92
2007-02-22 08:09:23 51°16.54 2°52.851 3.7 18 6.5 100780 92
2007-02-22 08:09:28 51°16.557 2°52.841 2.4 80 6.5 100780 92
2007-02-22 08:09:33 51°16.575 2°52.832 2.4 25 6.5 100780 92
2007-02-22 08:09:38 51°16.592 2°52.822 2.3 283 6.5 100780 92
2007-02-22 08:09:43 51°16.61 2°52.813 1.7 266 6.5 100780 92
2007-02-22 08:09:48 51°16.627 2°52.804 1.8 279 6.5 100780 92
2007-02-22 08:09:53 51°16.645 2°52.794 3.5 23 6.5 100780 92
2007-02-22 08:09:58 51°16.662 2°52.785 2.5 80 6.5 100780 92
2007-02-22 08:10:03 51°16.68 2°52.776 3.5 34 6.5 100790 92
2007-02-22 08:10:08 51°16.697 2°52.767 2.7 80 6.5 100790 92
2007-02-22 08:10:13 51°16.714 2°52.758 2.9 28 6.5 100780 92
2007-02-22 08:10:18 51°16.732 2°52.749 3 80 6.5 100780 92
2007-02-22 08:10:23 51°16.749 2°52.739 2.3 25 6.5 100780 92
2007-02-22 08:10:28 51°16.767 2°52.73 2.7 79 6.5 100780 92
2007-02-22 08:10:33 51°16.784 2°52.721 2.8 14 6.5 100780 92
2007-02-22 08:10:38 51°16.801 2°52.712 1.9 79 6.5 100780 92
2007-02-22 08:10:43 51°16.818 2°52.702 1.3 268 6.5 100780 92
2007-02-22 08:10:48 51°16.835 2°52.693 2.4 281 6.5 100780 92
2007-02-22 08:10:53 51°16.853 2°52.683 3.6 22 6.5 100790 92
2007-02-22 08:10:58 51°16.87 2°52.674 2.9 74 6.5 100790 92
2007-02-22 08:11:03 51°16.887 2°52.664 3.2 22 6.5 100780 92
2007-02-22 08:11:08 51°16.904 2°52.655 3.1 78 6.5 100780 92
2007-02-22 08:11:13 51°16.922 2°52.646 2.7 20 6.5 100780 92
2007-02-22 08:11:18 51°16.939 2°52.637 2.8 82 6.5 100780 92
2007-02-22 08:11:23 51°16.957 2°52.627 1.9 268 6.6 100780 92
2007-02-22 08:11:28 51°16.974 2°52.618 1.6 278 6.6 100780 92
2007-02-22 08:11:33 51°16.992 2°52.609 2.7 25 6.5 100780 92
2007-02-22 08:11:38 51°17.01 2°52.599 2.4 79 6.5 100780 92
2007-02-22 08:11:43 51°17.027 2°52.59 2.3 270 6.5 100790 92
2007-02-22 08:11:48 51°17.045 2°52.58 2.4 77 6.5 100790 92
2007-02-22 08:11:53 51°17.062 2°52.571 2.9 19 6.6 100780 92
2007-02-22 08:11:58 51°17.08 2°52.563 2.2 81 6.6 100780 92
2007-02-22 08:12:03 51°17.097 2°52.553 2.8 24 6.6 100780 92
2007-02-22 08:12:08 51°17.115 2°52.544 2.4 77 6.6 100780 92
2007-02-22 08:12:13 51°17.132 2°52.535 2.6 25 6.6 100780 92
2007-02-22 08:12:18 51°17.15 2°52.526 2.6 75 6.6 100780 92
2007-02-22 08:12:23 51°17.167 2°52.516 2.9 20 6.6 100780 92
2007-02-22 08:12:28 51°17.185 2°52.507 3.3 80 6.6 100780 92
2007-02-22 08:12:33 51°17.202 2°52.498 2.9 21 6.6 100780 92
2007-02-22 08:12:38 51°17.22 2°52.488 4.2 80 6.6 100780 92
2007-02-22 08:12:43 51°17.238 2°52.479 3.2 21 6.6 100780 92
2007-02-22 08:12:48 51°17.255 2°52.469 4.4 80 6.6 100780 92
2007-02-22 08:12:53 51°17.273 2°52.459 4.8 20 6.6 100780 92
2007-02-22 08:12:58 51°17.291 2°52.45 3 74 6.6 100780 92
2007-02-22 08:13:03 51°17.308 2°52.44 3.6 25 6.6 100780 92
2007-02-22 08:13:08 51°17.326 2°52.432 4.1 79 6.6 100780 92
2007-02-22 08:13:13 51°17.343 2°52.422 3.8 19 6.6 100780 92
2007-02-22 08:13:18 51°17.361 2°52.412 4.1 283 6.6 100780 92
2007-02-22 08:13:23 51°17.378 2°52.398 3.5 261 6.6 100780 92
2007-02-22 08:13:28 51°17.394 2°52.385 3.9 -999 6.6 100780 92
2007-02-22 08:13:33 51°17.41 2°52.369 4.1 264 6.6 100770 92
2007-02-22 08:13:38 51°17.426 2°52.354 5 280 6.6 100770 92
2007-02-22 08:13:43 51°17.441 2°52.337 4.9 260 6.6 100780 92
2007-02-22 08:13:47 51°17.453 2°52.324 4.7 280 6.6 100780 92
2007-02-22 08:13:53 51°17.471 2°52.302 5 262 6.7 100770 92
2007-02-22 08:13:58 51°17.485 2°52.281 6.9 286 6.7 100770 92
2007-02-22 08:14:03 51°17.498 2°52.26 7.1 259 6.7 100770 92
2007-02-22 08:14:08 51°17.51 2°52.238 9.2 283 6.7 100770 92
2007-02-22 08:14:13 51°17.521 2°52.214 9.3 252 6.7 100770 92
2007-02-22 08:14:18 51°17.532 2°52.19 9.1 286 6.7 100770 92
2007-02-22 08:14:23 51°17.541 2°52.164 9.6 253 6.7 100770 92
2007-02-22 08:14:28 51°17.551 2°52.138 8.4 285 6.7 100770 92
2007-02-22 08:14:33 51°17.559 2°52.111 9 251 6.7 100760 92
2007-02-22 08:14:38 51°17.566 2°52.083 9.3 281 6.7 100760 92
2007-02-22 08:14:43 51°17.574 2°52.056 10.3 251 6.7 100760 92
2007-02-22 08:14:48 51°17.581 2°52.028 9.2 282 6.7 100760 92
2007-02-22 08:14:53 51°17.588 2°52 9.1 250 6.7 100770 92
2007-02-22 08:14:58 51°17.595 2°51.972 9 280 6.7 100770 92
2007-02-22 08:15:03 51°17.602 2°51.944 9.4 19 6.7 100760 92
2007-02-22 08:15:08 51°17.609 2°51.916 8.8 280 6.7 100760 92
2007-02-22 08:15:13 51°17.616 2°51.888 8.7 248 6.7 100760 92
2007-02-22 08:15:18 51°17.623 2°51.86 9.1 281 6.7 100760 92
2007-02-22 08:15:23 51°17.631 2°51.832 10.2 248 6.7 100760 92
2007-02-22 08:15:28 51°17.638 2°51.805 10.7 280 6.7 100760 92
2007-02-22 08:15:33 51°17.646 2°51.777 9.2 249 6.7 100760 92
2007-02-22 08:15:38 51°17.654 2°51.749 9.3 279 6.7 100760 92
2007-02-22 08:15:43 51°17.661 2°51.722 9.7 247 6.7 100760 92
2007-02-22 08:15:48 51°17.669 2°51.694 11.2 284 6.7 100760 92
2007-02-22 08:15:53 51°17.678 2°51.667 8.8 23 6.7 100760 92
2007-02-22 08:15:58 51°17.686 2°51.639 9.9 281 6.7 100760 92
2007-02-22 08:16:03 51°17.694 2°51.612 11.6 250 6.7 100750 92
2007-02-22 08:16:08 51°17.702 2°51.584 11.2 279 6.7 100750 92
2007-02-22 08:16:13 51°17.71 2°51.557 9.4 252 6.7 100760 92
2007-02-22 08:16:18 51°17.718 2°51.53 8.9 281 6.7 100760 92
2007-02-22 08:16:23 51°17.726 2°51.502 9.3 250 6.7 100750 92
2007-02-22 08:16:28 51°17.734 2°51.475 9.1 282 6.7 100750 92
2007-02-22 08:16:33 51°17.741 2°51.447 8.2 25 6.7 100760 91
2007-02-22 08:16:38 51°17.75 2°51.419 9 279 6.7 100760 91
2007-02-22 08:16:43 51°17.757 2°51.392 9.5 249 6.7 100760 91
2007-02-22 08:16:48 51°17.766 2°51.364 10.4 286 6.7 100760 91
2007-02-22 08:16:53 51°17.774 2°51.336 9 250 6.7 100760 91
2007-02-22 08:16:58 51°17.782 2°51.309 8.3 280 6.7 100760 91
2007-02-22 08:17:03 51°17.791 2°51.281 7.5 248 6.7 100760 91
2007-02-22 08:17:08 51°17.8 2°51.254 8.2 283 6.7 100760 91
2007-02-22 08:17:13 51°17.808 2°51.227 10.9 19 6.7 100760 91
2007-02-22 08:17:18 51°17.817 2°51.199 10.3 281 6.7 100760 91
2007-02-22 08:17:23 51°17.825 2°51.171 11.9 252 6.7 100760 91
2007-02-22 08:17:28 51°17.834 2°51.144 10.5 283 6.7 100760 91
2007-02-22 08:17:33 51°17.842 2°51.116 7.8 252 6.7 100760 91
2007-02-22 08:17:38 51°17.85 2°51.088 9.2 280 6.7 100760 91
2007-02-22 08:17:43 51°17.859 2°51.061 10 251 6.7 100760 91
2007-02-22 08:17:48 51°17.867 2°51.033 8.6 281 6.7 100760 91
2007-02-22 08:17:53 51°17.876 2°51.005 9 249 6.7 100750 91
2007-02-22 08:17:58 51°17.884 2°50.977 9.6 280 6.7 100750 91
2007-02-22 08:18:03 51°17.892 2°50.949 9.1 252 6.7 100760 91
2007-02-22 08:18:08 51°17.901 2°50.922 9.4 281 6.7 100760 91
2007-02-22 08:18:13 51°17.909 2°50.894 9.3 255 6.7 100760 91
2007-02-22 08:18:18 51°17.918 2°50.867 9.7 278 6.7 100760 91
2007-02-22 08:18:23 51°17.926 2°50.839 9.3 252 6.7 100750 91
2007-02-22 08:18:28 51°17.935 2°50.812 8.1 280 6.7 100750 91
2007-02-22 08:18:33 51°17.943 2°50.784 8.5 248 6.7 100750 91
2007-02-22 08:18:38 51°17.952 2°50.757 10.6 284 6.7 100750 91
2007-02-22 08:18:43 51°17.96 2°50.729 10.1 251 6.7 100760 91
2007-02-22 08:18:48 51°17.969 2°50.702 9.3 283 6.7 100760 91
2007-02-22 08:18:53 51°17.977 2°50.674 9.3 251 6.7 100760 91
2007-02-22 08:18:58 51°17.986 2°50.647 10 281 6.7 100760 91
2007-02-22 08:19:03 51°17.994 2°50.619 10.2 252 6.7 100760 91
2007-02-22 08:19:08 51°18.003 2°50.592 10.1 285 6.7 100760 91
2007-02-22 08:19:13 51°18.011 2°50.565 8.5 21 6.7 100750 91
2007-02-22 08:19:18 51°18.02 2°50.537 8.2 279 6.7 100750 91
2007-02-22 08:19:23 51°18.028 2°50.51 9.5 251 6.7 100760 91
2007-02-22 08:19:28 51°18.037 2°50.482 10.7 278 6.7 100760 91
2007-02-22 08:19:33 51°18.045 2°50.455 8.9 251 6.7 100760 91
2007-02-22 08:19:38 51°18.053 2°50.427 8.1 280 6.7 100760 91
2007-02-22 08:19:43 51°18.062 2°50.4 8.8 250 6.7 100760 91
2007-02-22 08:19:48 51°18.07 2°50.373 10.3 280 6.7 100760 91
2007-02-22 08:19:53 51°18.078 2°50.345 9.9 251 6.7 100750 91
2007-02-22 08:19:58 51°18.087 2°50.317 9 280 6.7 100750 91
2007-02-22 08:20:03 51°18.095 2°50.29 10 21 6.7 100750 91
2007-02-22 08:20:08 51°18.104 2°50.262 8.8 287 6.7 100750 91
2007-02-22 08:20:13 51°18.112 2°50.235 9 20 6.7 100760 91
2007-02-22 08:20:18 51°18.121 2°50.207 10.3 278 6.7 100760 91
2007-02-22 08:20:23 51°18.129 2°50.179 9.3 253 6.7 100750 91
2007-02-22 08:20:28 51°18.137 2°50.152 9.5 285 6.7 100750 91
2007-02-22 08:20:33 51°18.146 2°50.124 10.7 252 6.7 100750 91
2007-02-22 08:20:38 51°18.154 2°50.096 10.2 283 6.7 100750 91
2007-02-22 08:20:43 51°18.162 2°50.069 10.3 252 6.7 100750 91
2007-02-22 08:20:48 51°18.17 2°50.041 9.7 278 6.7 100750 91
2007-02-22 08:20:53 51°18.178 2°50.013 12.1 252 6.7 100750 91
2007-02-22 08:20:58 51°18.186 2°49.986 10.2 283 6.7 100750 91
2007-02-22 08:21:03 51°18.194 2°49.958 9.7 250 6.7 100760 91
2007-02-22 08:21:08 51°18.202 2°49.93 8.4 283 6.7 100760 91
2007-02-22 08:21:13 51°18.21 2°49.902 11.5 250 6.7 100760 91
2007-02-22 08:21:18 51°18.217 2°49.875 10.4 281 6.7 100760 91
2007-02-22 08:21:23 51°18.226 2°49.847 9.6 247 6.7 100760 91
2007-02-22 08:21:28 51°18.233 2°49.819 10.6 -999 6.7 100760 91
2007-02-22 08:21:33 51°18.242 2°49.792 11.4 252 6.7 100760 91
2007-02-22 08:21:38 51°18.25 2°49.764 9.1 279 6.7 100760 91
2007-02-22 08:21:43 51°18.258 2°49.736 10.2 250 6.7 100760 91
2007-02-22 08:21:48 51°18.266 2°49.708 9.7 282 6.7 100760 91
2007-02-22 08:21:53 51°18.274 2°49.68 9.6 252 6.7 100750 91
2007-02-22 08:21:58 51°18.282 2°49.653 10.4 286 6.7 100750 91
2007-02-22 08:22:03 51°18.29 2°49.625 8.8 19 6.7 100750 92
2007-02-22 08:22:08 51°18.298 2°49.597 8.3 285 6.7 100750 92
2007-02-22 08:22:13 51°18.306 2°49.569 8.8 251 6.7 100750 91
2007-02-22 08:22:18 51°18.315 2°49.542 8.1 283 6.7 100750 91
2007-02-22 08:22:23 51°18.323 2°49.514 9.3 252 6.7 100750 91
2007-02-22 08:22:28 51°18.331 2°49.487 10.4 287 6.7 100750 91
2007-02-22 08:22:33 51°18.339 2°49.459 9.7 251 6.7 100760 91
2007-02-22 08:22:38 51°18.347 2°49.432 11.5 282 6.7 100760 91
2007-02-22 08:22:43 51°18.355 2°49.404 9.6 253 6.7 100750 91
2007-02-22 08:22:48 51°18.363 2°49.377 9.2 283 6.7 100750 91
2007-02-22 08:22:53 51°18.372 2°49.349 9.7 252 6.7 100750 91
2007-02-22 08:22:58 51°18.38 2°49.322 8.8 284 6.7 100750 91
2007-02-22 08:23:03 51°18.388 2°49.294 7.9 252 6.7 100750 92
2007-02-22 08:23:08 51°18.397 2°49.266 10.1 285 6.7 100750 92
2007-02-22 08:23:13 51°18.405 2°49.239 10.3 248 6.7 100760 92
2007-02-22 08:23:18 51°18.413 2°49.211 10.1 285 6.7 100760 92
2007-02-22 08:23:23 51°18.422 2°49.184 8.2 250 6.7 100750 92
2007-02-22 08:23:28 51°18.43 2°49.156 8.8 285 6.7 100750 92
2007-02-22 08:23:33 51°18.438 2°49.129 8.9 21 6.7 100750 92
2007-02-22 08:23:38 51°18.447 2°49.101 10.8 281 6.7 100750 92
2007-02-22 08:23:43 51°18.455 2°49.073 9.3 21 6.7 100760 92
2007-02-22 08:23:48 51°18.463 2°49.045 10.6 280 6.7 100760 92
2007-02-22 08:23:53 51°18.471 2°49.017 8.4 249 6.7 100750 92
2007-02-22 08:23:58 51°18.479 2°48.989 9.2 282 6.7 100750 92
2007-02-22 08:24:03 51°18.487 2°48.961 10.5 252 6.7 100750 92
2007-02-22 08:24:08 51°18.495 2°48.932 8.4 286 6.7 100750 92
2007-02-22 08:24:13 51°18.504 2°48.904 8.2 19 6.7 100760 92
2007-02-22 08:24:18 51°18.512 2°48.876 9.1 281 6.7 100760 92
2007-02-22 08:24:23 51°18.52 2°48.849 10.8 252 6.7 100750 92
2007-02-22 08:24:28 51°18.528 2°48.82 11.4 282 6.7 100750 92
2007-02-22 08:24:33 51°18.536 2°48.792 9 20 6.7 100760 92
2007-02-22 08:24:38 51°18.544 2°48.764 8 281 6.7 100760 92
2007-02-22 08:24:43 51°18.552 2°48.736 10.6 21 6.7 100750 92
2007-02-22 08:24:48 51°18.561 2°48.707 10.8 281 6.7 100750 92
2007-02-22 08:24:53 51°18.569 2°48.679 10.5 250 6.7 100750 92
2007-02-22 08:24:58 51°18.577 2°48.65 10.4 282 6.7 100750 92
2007-02-22 08:25:03 51°18.585 2°48.622 8 247 6.7 100760 92
2007-02-22 08:25:08 51°18.593 2°48.594 9.5 284 6.7 100760 92
2007-02-22 08:25:13 51°18.601 2°48.566 7.9 20 6.7 100750 92
2007-02-22 08:25:18 51°18.61 2°48.537 9.5 285 6.7 100750 92
2007-02-22 08:25:23 51°18.618 2°48.509 9.4 21 6.7 100760 92
2007-02-22 08:25:28 51°18.626 2°48.48 7.7 286 6.7 100760 92
2007-02-22 08:25:33 51°18.635 2°48.452 9 18 6.7 100750 92
2007-02-22 08:25:38 51°18.643 2°48.423 9.9 286 6.7 100750 92
2007-02-22 08:25:43 51°18.651 2°48.395 8.5 247 6.7 100750 92
2007-02-22 08:25:48 51°18.659 2°48.366 9 281 6.7 100750 92
2007-02-22 08:25:53 51°18.667 2°48.338 10.9 248 6.7 100750 92
2007-02-22 08:25:58 51°18.676 2°48.31 10.4 279 6.7 100750 92
2007-02-22 08:26:03 51°18.684 2°48.281 9.6 247 6.7 100750 92
2007-02-22 08:26:08 51°18.692 2°48.253 9.8 282 6.7 100750 92
2007-02-22 08:26:13 51°18.7 2°48.225 9.3 22 6.7 100760 92
2007-02-22 08:26:18 51°18.708 2°48.197 10.4 278 6.7 100760 92
2007-02-22 08:26:23 51°18.716 2°48.169 8.2 244 6.7 100750 92
2007-02-22 08:26:28 51°18.724 2°48.14 8.8 278 6.7 100750 92
2007-02-22 08:26:33 51°18.732 2°48.112 7.6 249 6.7 100750 92
2007-02-22 08:26:38 51°18.74 2°48.084 8 279 6.7 100750 92
2007-02-22 08:26:43 51°18.748 2°48.056 10.3 21 6.7 100760 92
2007-02-22 08:26:48 51°18.756 2°48.027 11.1 278 6.7 100760 92
2007-02-22 08:26:53 51°18.763 2°47.999 11.6 248 6.7 100750 92
2007-02-22 08:26:58 51°18.771 2°47.971 10.8 281 6.7 100750 92
2007-02-22 08:27:03 51°18.779 2°47.942 8.9 251 6.7 100750 92
2007-02-22 08:27:08 51°18.787 2°47.914 10.7 285 6.7 100750 92
2007-02-22 08:27:13 51°18.794 2°47.886 8.8 247 6.7 100760 92
2007-02-22 08:27:18 51°18.802 2°47.858 10.2 281 6.7 100760 92
2007-02-22 08:27:23 51°18.81 2°47.829 10.1 246 6.7 100750 92
2007-02-22 08:27:28 51°18.817 2°47.801 8.9 279 6.7 100750 92
2007-02-22 08:27:33 51°18.825 2°47.773 9.1 249 6.7 100740 92
2007-02-22 08:27:38 51°18.833 2°47.745 9.1 282 6.7 100740 92
2007-02-22 08:27:43 51°18.84 2°47.716 9.8 22 6.7 100740 92
2007-02-22 08:27:48 51°18.848 2°47.688 10.7 280 6.7 100740 92
2007-02-22 08:27:53 51°18.855 2°47.659 11.9 21 6.7 100740 92
2007-02-22 08:27:58 51°18.863 2°47.631 11.3 283 6.7 100740 92
2007-02-22 08:28:03 51°18.871 2°47.603 10.3 251 6.7 100740 92
2007-02-22 08:28:08 51°18.878 2°47.574 11 284 6.7 100740 92
2007-02-22 08:28:13 51°18.886 2°47.546 10.5 249 6.7 100750 92
2007-02-22 08:28:18 51°18.893 2°47.517 9.2 281 6.7 100750 92
2007-02-22 08:28:23 51°18.901 2°47.489 8.8 249 6.7 100740 92
2007-02-22 08:28:28 51°18.908 2°47.461 9.9 279 6.7 100740 92
2007-02-22 08:28:33 51°18.916 2°47.433 9.4 249 6.7 100740 92
2007-02-22 08:28:38 51°18.923 2°47.404 9.5 282 6.7 100740 92
2007-02-22 08:28:43 51°18.931 2°47.376 10.5 250 6.7 100740 92
2007-02-22 08:28:48 51°18.938 2°47.347 9.1 281 6.7 100740 92
2007-02-22 08:28:53 51°18.946 2°47.319 8.7 245 6.7 100740 92
2007-02-22 08:28:58 51°18.953 2°47.29 7.2 284 6.7 100740 92
2007-02-22 08:29:03 51°18.96 2°47.262 8.8 20 6.7 100750 92
2007-02-22 08:29:08 51°18.968 2°47.234 10.4 278 6.7 100750 92
2007-02-22 08:29:13 51°18.975 2°47.205 9.5 250 6.7 100750 92
2007-02-22 08:29:18 51°18.983 2°47.177 11 286 6.7 100750 92
2007-02-22 08:29:23 51°18.99 2°47.149 9.6 251 6.7 100750 92
2007-02-22 08:29:28 51°18.997 2°47.121 9.1 282 6.7 100750 92
2007-02-22 08:29:33 51°19.005 2°47.092 9.8 251 6.7 100740 92
2007-02-22 08:29:38 51°19.013 2°47.064 11.1 287 6.7 100740 92
2007-02-22 08:29:43 51°19.02 2°47.036 9.8 18 6.7 100750 92
2007-02-22 08:29:48 51°19.027 2°47.008 10.8 282 6.7 100750 92
2007-02-22 08:29:53 51°19.034 2°46.979 10.2 22 6.7 100740 92
2007-02-22 08:29:58 51°19.042 2°46.951 8.9 284 6.7 100740 92
2007-02-22 08:30:03 51°19.049 2°46.923 9.6 252 6.7 100740 92
2007-02-22 08:30:08 51°19.056 2°46.894 10.6 281 6.7 100740 92
2007-02-22 08:30:13 51°19.064 2°46.866 9.6 18 6.7 100740 92
2007-02-22 08:30:18 51°19.071 2°46.837 8.3 281 6.7 100740 92
2007-02-22 08:30:23 51°19.078 2°46.809 9.7 19 6.7 100740 92
2007-02-22 08:30:28 51°19.085 2°46.781 10 280 6.7 100740 92
2007-02-22 08:30:33 51°19.093 2°46.752 10.5 251 6.7 100740 92
2007-02-22 08:30:38 51°19.1 2°46.724 9.1 286 6.7 100740 92
2007-02-22 08:30:43 51°19.107 2°46.696 9.3 247 6.7 100740 92
2007-02-22 08:30:48 51°19.115 2°46.667 9.8 278 6.7 100740 92
2007-02-22 08:30:53 51°19.122 2°46.639 11.5 249 6.7 100740 92
2007-02-22 08:30:58 51°19.13 2°46.611 11.4 285 6.7 100740 92
2007-02-22 08:31:03 51°19.137 2°46.583 9.6 253 6.7 100740 92
2007-02-22 08:31:08 51°19.145 2°46.554 9.8 281 6.7 100740 92
2007-02-22 08:31:13 51°19.152 2°46.526 9.4 253 6.7 100740 92
2007-02-22 08:31:18 51°19.16 2°46.497 10.5 279 6.7 100740 92
2007-02-22 08:31:23 51°19.167 2°46.469 9.2 251 6.8 100740 92
2007-02-22 08:31:28 51°19.174 2°46.441 9.7 285 6.8 100740 92
2007-02-22 08:31:33 51°19.182 2°46.412 9 249 6.7 100740 92
2007-02-22 08:31:38 51°19.189 2°46.384 9.3 279 6.7 100740 92
2007-02-22 08:31:43 51°19.197 2°46.356 9.9 248 6.7 100750 92
2007-02-22 08:31:48 51°19.204 2°46.327 9.6 286 6.7 100750 92
2007-02-22 08:31:53 51°19.212 2°46.299 10.4 251 6.7 100750 92
2007-02-22 08:31:58 51°19.22 2°46.271 13.3 284 6.7 100750 92
2007-02-22 08:32:03 51°19.227 2°46.243 11.7 249 6.7 100730 92
2007-02-22 08:32:08 51°19.235 2°46.214 11.6 277 6.7 100730 92
2007-02-22 08:32:13 51°19.242 2°46.186 11 250 6.7 100730 92
2007-02-22 08:32:18 51°19.25 2°46.158 9.9 285 6.7 100730 92
2007-02-22 08:32:23 51°19.257 2°46.13 9.9 252 6.7 100740 92
2007-02-22 08:32:28 51°19.265 2°46.101 8.9 282 6.7 100740 92
2007-02-22 08:32:33 51°19.272 2°46.073 11.9 252 6.7 100740 92
2007-02-22 08:32:38 51°19.28 2°46.044 11.1 284 6.7 100740 92
2007-02-22 08:32:43 51°19.287 2°46.016 10 20 6.7 100730 92
2007-02-22 08:32:48 51°19.295 2°45.988 9.5 281 6.7 100730 92
2007-02-22 08:32:53 51°19.302 2°45.96 10.7 251 6.7 100740 92
2007-02-22 08:32:58 51°19.31 2°45.931 10.5 278 6.7 100740 92
2007-02-22 08:33:03 51°19.317 2°45.903 8.9 248 6.7 100750 92
2007-02-22 08:33:08 51°19.325 2°45.875 8.5 279 6.7 100750 92
2007-02-22 08:33:13 51°19.332 2°45.846 9.9 250 6.7 100740 92
2007-02-22 08:33:18 51°19.34 2°45.817 10.9 283 6.7 100740 92
2007-02-22 08:33:23 51°19.347 2°45.789 9 248 6.7 100740 92
2007-02-22 08:33:28 51°19.355 2°45.761 10 283 6.7 100740 92
2007-02-22 08:33:33 51°19.363 2°45.732 7.7 22 6.7 100750 92
2007-02-22 08:33:38 51°19.37 2°45.704 8.5 284 6.7 100750 92
2007-02-22 08:33:43 51°19.378 2°45.675 8.8 246 6.7 100740 92
2007-02-22 08:33:48 51°19.386 2°45.647 11.5 285 6.7 100740 92
2007-02-22 08:33:53 51°19.394 2°45.619 10.7 250 6.7 100750 92
2007-02-22 08:33:58 51°19.402 2°45.591 9.1 280 6.7 100750 92
2007-02-22 08:34:03 51°19.41 2°45.562 8.3 248 6.7 100740 92
2007-02-22 08:34:08 51°19.418 2°45.534 8.8 285 6.7 100740 92
2007-02-22 08:34:13 51°19.426 2°45.506 8.7 250 6.7 100730 92
2007-02-22 08:34:18 51°19.434 2°45.478 8.3 286 6.7 100730 92
2007-02-22 08:34:23 51°19.443 2°45.45 8.6 21 6.7 100740 92
2007-02-22 08:34:28 51°19.451 2°45.421 10.2 281 6.7 100740 92
2007-02-22 08:34:33 51°19.459 2°45.393 8.9 248 6.8 100740 92
2007-02-22 08:34:38 51°19.467 2°45.364 9.6 281 6.8 100740 92
2007-02-22 08:34:43 51°19.476 2°45.336 8.4 248 6.7 100740 92
2007-02-22 08:34:48 51°19.483 2°45.308 10.2 281 6.7 100740 92
2007-02-22 08:34:53 51°19.492 2°45.28 8.2 19 6.8 100740 92
2007-02-22 08:34:58 51°19.5 2°45.251 8.5 283 6.8 100740 92
2007-02-22 08:35:03 51°19.508 2°45.223 9.8 251 6.8 100740 93
2007-02-22 08:35:08 51°19.517 2°45.194 10.2 282 6.8 100740 93
2007-02-22 08:35:13 51°19.525 2°45.165 7.9 250 6.8 100740 93
2007-02-22 08:35:18 51°19.534 2°45.135 10.7 284 6.8 100740 93
2007-02-22 08:35:23 51°19.542 2°45.106 11.1 20 6.8 100730 93
2007-02-22 08:35:28 51°19.551 2°45.078 11.4 281 6.8 100730 93
2007-02-22 08:35:33 51°19.559 2°45.049 11.1 21 6.8 100730 92
2007-02-22 08:35:38 51°19.567 2°45.02 10.2 285 6.8 100730 92
2007-02-22 08:35:43 51°19.575 2°44.991 8.8 250 6.8 100740 93
2007-02-22 08:35:48 51°19.583 2°44.963 9.7 285 6.8 100740 93
2007-02-22 08:35:53 51°19.592 2°44.935 10.1 249 6.8 100740 93
2007-02-22 08:35:58 51°19.599 2°44.906 8.7 280 6.8 100740 93
2007-02-22 08:36:03 51°19.608 2°44.878 10.6 250 6.8 100740 93
2007-02-22 08:36:08 51°19.615 2°44.849 9.3 277 6.8 100740 93
2007-02-22 08:36:13 51°19.623 2°44.821 10.4 252 6.8 100740 93
2007-02-22 08:36:18 51°19.631 2°44.793 8.6 285 6.8 100740 93
2007-02-22 08:36:23 51°19.639 2°44.765 10.8 252 6.8 100730 93
2007-02-22 08:36:28 51°19.647 2°44.737 10.7 279 6.8 100730 93
2007-02-22 08:36:33 51°19.655 2°44.709 9.7 251 6.8 100740 93
2007-02-22 08:36:38 51°19.663 2°44.681 8.8 283 6.8 100740 93
2007-02-22 08:36:43 51°19.67 2°44.652 9.2 22 6.8 100740 93
2007-02-22 08:36:48 51°19.678 2°44.624 9.4 278 6.8 100740 93
2007-02-22 08:36:53 51°19.686 2°44.596 9.8 252 6.8 100740 93
2007-02-22 08:36:58 51°19.694 2°44.568 9.6 284 6.8 100740 93
2007-02-22 08:37:03 51°19.702 2°44.54 8.5 247 6.8 100740 93
2007-02-22 08:37:08 51°19.71 2°44.512 10.2 280 6.8 100740 93
2007-02-22 08:37:13 51°19.718 2°44.484 9.8 251 6.8 100730 93
2007-02-22 08:37:18 51°19.725 2°44.456 10.4 281 6.8 100730 93
2007-02-22 08:37:23 51°19.733 2°44.428 10.3 248 6.8 100740 93
2007-02-22 08:37:28 51°19.741 2°44.4 11.8 282 6.8 100740 93
2007-02-22 08:37:33 51°19.749 2°44.372 11.3 22 6.8 100740 93
2007-02-22 08:37:38 51°19.757 2°44.343 12.4 282 6.8 100740 93
2007-02-22 08:37:43 51°19.765 2°44.315 11 253 6.8 100730 93
2007-02-22 08:37:48 51°19.773 2°44.287 10.8 286 6.8 100730 93
2007-02-22 08:37:53 51°19.781 2°44.259 10.1 252 6.9 100740 93
2007-02-22 08:37:58 51°19.788 2°44.231 9.6 280 6.9 100740 93
2007-02-22 08:38:03 51°19.796 2°44.202 9 20 6.8 100730 92
2007-02-22 08:38:08 51°19.804 2°44.175 8.9 281 6.8 100730 92
2007-02-22 08:38:13 51°19.812 2°44.147 9.5 250 6.8 100740 92
2007-02-22 08:38:18 51°19.82 2°44.119 10.4 281 6.8 100740 92
2007-02-22 08:38:23 51°19.828 2°44.091 11 252 6.8 100740 92
2007-02-22 08:38:28 51°19.836 2°44.063 10 282 6.8 100740 92
2007-02-22 08:38:33 51°19.844 2°44.035 10.2 253 6.8 100730 93
2007-02-22 08:38:38 51°19.851 2°44.007 10.2 286 6.8 100730 93
2007-02-22 08:38:43 51°19.859 2°43.98 9.8 252 6.8 100740 93
2007-02-22 08:38:48 51°19.866 2°43.951 9.9 281 6.8 100740 93
2007-02-22 08:38:53 51°19.874 2°43.923 10.4 249 6.9 100740 92
2007-02-22 08:38:58 51°19.882 2°43.895 9.6 286 6.9 100740 92
2007-02-22 08:39:03 51°19.89 2°43.867 9 21 6.8 100750 92
2007-02-22 08:39:08 51°19.898 2°43.839 10.2 285 6.8 100750 92
2007-02-22 08:39:13 51°19.906 2°43.811 11.3 251 6.8 100740 92
2007-02-22 08:39:18 51°19.914 2°43.783 10.2 286 6.8 100740 92
2007-02-22 08:39:23 51°19.922 2°43.755 8.1 23 6.8 100740 92
2007-02-22 08:39:28 51°19.93 2°43.728 8.7 281 6.8 100740 92
2007-02-22 08:39:33 51°19.938 2°43.7 10.4 253 6.8 100730 92
2007-02-22 08:39:38 51°19.946 2°43.672 10.9 280 6.8 100730 92
2007-02-22 08:39:43 51°19.954 2°43.644 10.4 250 6.9 100740 92
2007-02-22 08:39:48 51°19.963 2°43.617 10.1 284 6.9 100740 92
2007-02-22 08:39:53 51°19.97 2°43.588 9.4 255 6.9 100740 93
2007-02-22 08:39:58 51°19.979 2°43.561 11 284 6.9 100740 93
2007-02-22 08:40:03 51°19.986 2°43.533 10.2 251 6.9 100740 92
2007-02-22 08:40:08 51°19.994 2°43.505 10.6 281 6.9 100740 92
2007-02-22 08:40:13 51°20.002 2°43.477 9.1 23 6.9 100750 92
2007-02-22 08:40:18 51°20.01 2°43.449 11.1 282 6.9 100750 92
2007-02-22 08:40:23 51°20.017 2°43.421 8.7 20 6.9 100750 93
2007-02-22 08:40:28 51°20.025 2°43.393 8.5 283 6.9 100750 93
2007-02-22 08:40:33 51°20.033 2°43.365 10.9 254 6.9 100740 92
2007-02-22 08:40:38 51°20.041 2°43.337 11.5 279 6.9 100740 92
2007-02-22 08:40:43 51°20.049 2°43.309 8.8 253 6.9 100740 92
2007-02-22 08:40:48 51°20.057 2°43.281 9.7 283 6.9 100740 92
2007-02-22 08:40:53 51°20.065 2°43.254 9.1 246 6.9 100740 92
2007-02-22 08:40:58 51°20.073 2°43.225 8.6 281 6.9 100740 92
2007-02-22 08:41:03 51°20.081 2°43.198 9.2 253 6.9 100740 92
2007-02-22 08:41:08 51°20.089 2°43.17 9.4 281 6.9 100740 92
2007-02-22 08:41:13 51°20.097 2°43.142 12 255 6.9 100740 92
2007-02-22 08:41:18 51°20.105 2°43.114 11.5 282 6.9 100740 92
2007-02-22 08:41:23 51°20.113 2°43.086 10.2 249 6.9 100740 92
2007-02-22 08:41:28 51°20.121 2°43.058 11.5 282 6.9 100740 92
2007-02-22 08:41:33 51°20.129 2°43.03 11.3 253 6.9 100740 92
2007-02-22 08:41:38 51°20.137 2°43.002 11.2 284 6.9 100740 92
2007-02-22 08:41:43 51°20.145 2°42.974 8.7 252 6.9 100730 92
2007-02-22 08:41:48 51°20.153 2°42.946 8.3 280 6.9 100730 92
2007-02-22 08:41:53 51°20.161 2°42.918 9.4 20 6.9 100730 92
2007-02-22 08:41:58 51°20.169 2°42.89 11.1 287 6.9 100730 92
2007-02-22 08:42:03 51°20.177 2°42.861 10 20 6.9 100720 92
2007-02-22 08:42:08 51°20.185 2°42.834 10.2 278 6.9 100720 92
2007-02-22 08:42:13 51°20.193 2°42.805 8.7 251 6.9 100740 92
2007-02-22 08:42:18 51°20.201 2°42.777 7.5 278 6.9 100740 92
2007-02-22 08:42:23 51°20.209 2°42.749 9.9 251 6.9 100730 92
2007-02-22 08:42:28 51°20.217 2°42.721 8 286 6.9 100730 92
2007-02-22 08:42:33 51°20.225 2°42.693 9.1 247 6.9 100730 92
2007-02-22 08:42:38 51°20.233 2°42.665 10.4 284 6.9 100730 92
2007-02-22 08:42:43 51°20.241 2°42.636 8.4 251 6.9 100730 93
2007-02-22 08:42:48 51°20.248 2°42.608 8.9 282 6.9 100730 93
2007-02-22 08:42:53 51°20.256 2°42.58 9.4 19 7 100740 93
2007-02-22 08:42:58 51°20.264 2°42.551 7.9 284 7 100740 93
2007-02-22 08:43:03 51°20.272 2°42.524 10.9 248 7 100730 93
2007-02-22 08:43:08 51°20.28 2°42.495 9.3 281 7 100730 93
2007-02-22 08:43:13 51°20.288 2°42.467 9.5 24 7 100740 93
2007-02-22 08:43:18 51°20.296 2°42.439 9.5 283 7 100740 93
2007-02-22 08:43:23 51°20.304 2°42.411 10.4 249 7 100740 93
2007-02-22 08:43:28 51°20.313 2°42.383 10.1 278 7 100740 93
2007-02-22 08:43:33 51°20.321 2°42.355 10.2 255 7 100730 93
2007-02-22 08:43:38 51°20.329 2°42.327 10 280 7 100730 93
2007-02-22 08:43:43 51°20.337 2°42.299 11 248 7 100740 93
2007-02-22 08:43:48 51°20.345 2°42.271 9.8 284 7 100740 93
2007-02-22 08:43:53 51°20.353 2°42.243 8.6 251 7 100730 93
2007-02-22 08:43:58 51°20.362 2°42.214 8.6 279 7 100730 93
2007-02-22 08:44:03 51°20.37 2°42.186 11.7 251 7 100730 92
2007-02-22 08:44:08 51°20.378 2°42.158 11.5 278 7 100730 92
2007-02-22 08:44:13 51°20.385 2°42.129 10.3 251 7 100730 92
2007-02-22 08:44:18 51°20.394 2°42.101 9.3 280 7 100730 92
2007-02-22 08:44:23 51°20.401 2°42.072 9.1 253 7 100740 92
2007-02-22 08:44:28 51°20.41 2°42.044 11.1 281 7 100740 92
2007-02-22 08:44:33 51°20.418 2°42.015 10.7 251 7 100730 92
2007-02-22 08:44:38 51°20.426 2°41.987 10.3 282 7 100730 92
2007-02-22 08:44:43 51°20.435 2°41.959 11 252 7 100740 92
2007-02-22 08:44:48 51°20.443 2°41.931 14.1 281 7 100740 92
2007-02-22 08:44:53 51°20.451 2°41.903 12.4 254 7 100730 92
2007-02-22 08:44:58 51°20.459 2°41.874 12.9 283 7 100730 92
2007-02-22 08:45:03 51°20.467 2°41.846 10 250 7 100740 92
2007-02-22 08:45:08 51°20.476 2°41.818 10.1 285 7 100740 92
2007-02-22 08:45:13 51°20.484 2°41.79 8.1 19 7 100730 92
2007-02-22 08:45:18 51°20.493 2°41.761 11 286 7 100730 92
2007-02-22 08:45:23 51°20.5 2°41.733 9.1 251 7 100730 92
2007-02-22 08:45:28 51°20.509 2°41.704 12.4 281 7 100730 92
2007-02-22 08:45:33 51°20.516 2°41.675 10 249 7 100720 92
2007-02-22 08:45:38 51°20.524 2°41.647 10.1 285 7 100720 92
2007-02-22 08:45:43 51°20.532 2°41.619 9.6 250 7 100720 92
2007-02-22 08:45:48 51°20.54 2°41.591 9.2 282 7 100720 92
2007-02-22 08:45:53 51°20.548 2°41.562 9.3 19 7 100730 92
2007-02-22 08:45:58 51°20.556 2°41.534 9.3 284 7 100730 92
2007-02-22 08:46:03 51°20.564 2°41.505 10.5 254 7 100720 92
2007-02-22 08:46:08 51°20.573 2°41.478 9.6 281 7 100720 92
2007-02-22 08:46:13 51°20.581 2°41.45 11.5 251 7 100730 92
2007-02-22 08:46:18 51°20.589 2°41.421 11.4 286 7 100730 92
2007-02-22 08:46:23 51°20.597 2°41.393 10.4 251 7 100730 92
2007-02-22 08:46:28 51°20.605 2°41.365 8.8 -999 7 100730 92
2007-02-22 08:46:33 51°20.613 2°41.337 10.5 250 7 100720 92
2007-02-22 08:46:38 51°20.621 2°41.309 9 278 7 100720 92
2007-02-22 08:46:43 51°20.63 2°41.281 9.7 251 7 100730 92
2007-02-22 08:46:48 51°20.638 2°41.253 9.3 280 7 100730 92
2007-02-22 08:46:53 51°20.646 2°41.225 8.8 250 7 100730 92
2007-02-22 08:46:58 51°20.654 2°41.196 10 285 7 100730 92
2007-02-22 08:47:03 51°20.663 2°41.169 9.9 252 7 100730 92
2007-02-22 08:47:08 51°20.67 2°41.141 8.5 281 7 100730 92
2007-02-22 08:47:13 51°20.678 2°41.113 11.2 253 7 100730 92
2007-02-22 08:47:18 51°20.686 2°41.084 9.5 280 7 100730 92
2007-02-22 08:47:23 51°20.694 2°41.057 9.8 253 7 100720 92
2007-02-22 08:47:28 51°20.703 2°41.028 9.8 281 7 100720 92
2007-02-22 08:47:33 51°20.71 2°41 9.8 248 7 100730 92
2007-02-22 08:47:38 51°20.716 2°40.971 10.8 283 7 100730 92
2007-02-22 08:47:43 51°20.722 2°40.941 11.7 248 7 100730 92
2007-02-22 08:47:48 51°20.726 2°40.912 12.7 282 7 100730 92
2007-02-22 08:47:53 51°20.73 2°40.882 12.9 21 7 100730 92
2007-02-22 08:47:58 51°20.734 2°40.852 12.5 283 7 100730 92
2007-02-22 08:48:03 51°20.736 2°40.822 12.5 246 7 100720 92
2007-02-22 08:48:08 51°20.739 2°40.792 11.7 278 7 100720 92
2007-02-22 08:48:13 51°20.741 2°40.762 11.5 25 7 100710 92
2007-02-22 08:48:18 51°20.743 2°40.732 13.4 282 7 100710 92
2007-02-22 08:48:23 51°20.745 2°40.701 14.1 249 7 100710 92
2007-02-22 08:48:28 51°20.747 2°40.671 12.8 283 7 100710 92
2007-02-22 08:48:33 51°20.748 2°40.64 13 249 7 100700 92
2007-02-22 08:48:38 51°20.751 2°40.61 10.7 284 7 100700 92
2007-02-22 08:48:43 51°20.752 2°40.579 11.3 23 7 100690 92
2007-02-22 08:48:48 51°20.754 2°40.548 11.3 282 7 100690 92
2007-02-22 08:48:53 51°20.756 2°40.518 10.8 22 7 100710 92
2007-02-22 08:48:58 51°20.758 2°40.488 12.7 285 7 100710 92
2007-02-22 08:49:03 51°20.76 2°40.458 13.1 22 7 100710 92
2007-02-22 08:49:08 51°20.762 2°40.427 12.1 284 7 100710 92
2007-02-22 08:49:13 51°20.764 2°40.397 12.6 23 7 100710 92
2007-02-22 08:49:18 51°20.765 2°40.367 13.1 287 7 100710 92
2007-02-22 08:49:23 51°20.767 2°40.336 12 23 7.1 100700 92
2007-02-22 08:49:28 51°20.769 2°40.306 11.9 -999 7.1 100700 92
2007-02-22 08:49:33 51°20.771 2°40.276 11.7 20 7.1 100700 92
2007-02-22 08:49:38 51°20.773 2°40.245 13.7 281 7.1 100700 92
2007-02-22 08:49:43 51°20.775 2°40.215 13.6 24 7 100700 92
2007-02-22 08:49:48 51°20.777 2°40.184 13.1 283 7 100700 92
2007-02-22 08:49:53 51°20.779 2°40.154 13.1 23 7.1 100700 92
2007-02-22 08:49:58 51°20.781 2°40.123 12.8 285 7.1 100700 92
2007-02-22 08:50:03 51°20.783 2°40.092 12.9 19 7 100710 92
2007-02-22 08:50:08 51°20.785 2°40.062 13.7 285 7 100710 92
2007-02-22 08:50:13 51°20.787 2°40.031 13.5 25 7 100700 92
2007-02-22 08:50:18 51°20.789 2°40 13.8 281 7 100700 92
2007-02-22 08:50:23 51°20.791 2°39.97 13.1 23 7 100690 92
2007-02-22 08:50:28 51°20.793 2°39.939 12 283 7 100690 92
2007-02-22 08:50:33 51°20.795 2°39.908 13 25 7.1 100700 92
2007-02-22 08:50:38 51°20.797 2°39.878 11.8 283 7.1 100700 92
2007-02-22 08:50:43 51°20.799 2°39.847 14.4 23 7.1 100700 92
2007-02-22 08:50:48 51°20.801 2°39.816 13.6 283 7.1 100700 92
2007-02-22 08:50:53 51°20.804 2°39.786 11.8 27 7.1 100700 92
2007-02-22 08:50:58 51°20.806 2°39.755 14.8 281 7.1 100700 92
2007-02-22 08:51:03 51°20.808 2°39.724 12.3 26 7.1 100700 92
2007-02-22 08:51:08 51°20.81 2°39.693 14.2 283 7.1 100700 92
2007-02-22 08:51:13 51°20.811 2°39.662 13 248 7.1 100710 92
2007-02-22 08:51:18 51°20.814 2°39.632 12 281 7.1 100710 92
2007-02-22 08:51:23 51°20.815 2°39.601 13.4 22 7.1 100700 92
2007-02-22 08:51:28 51°20.818 2°39.57 11.3 286 7.1 100700 92
2007-02-22 08:51:33 51°20.82 2°39.539 11.5 24 7.1 100700 92
2007-02-22 08:51:38 51°20.822 2°39.508 12.8 286 7.1 100700 92
2007-02-22 08:51:43 51°20.824 2°39.477 12.3 22 7.1 100710 92
2007-02-22 08:51:48 51°20.827 2°39.447 13.9 282 7.1 100710 92
2007-02-22 08:51:53 51°20.829 2°39.416 12.3 245 7.1 100690 92
2007-02-22 08:51:58 51°20.831 2°39.385 10.6 279 7.1 100690 92
2007-02-22 08:52:03 51°20.834 2°39.354 11 23 7.1 100690 92
2007-02-22 08:52:08 51°20.836 2°39.324 11.2 286 7.1 100690 92
2007-02-22 08:52:13 51°20.838 2°39.293 10 24 7.1 100710 92
2007-02-22 08:52:18 51°20.84 2°39.263 10.9 281 7.1 100710 92
2007-02-22 08:52:23 51°20.842 2°39.232 12.7 244 7.1 100710 92
2007-02-22 08:52:28 51°20.845 2°39.201 13 281 7.1 100710 92
2007-02-22 08:52:33 51°20.847 2°39.171 11.5 245 7.1 100700 92
2007-02-22 08:52:38 51°20.849 2°39.14 10.9 278 7.1 100700 92
2007-02-22 08:52:43 51°20.851 2°39.109 13.7 22 7.1 100710 92
2007-02-22 08:52:48 51°20.854 2°39.079 12.6 285 7.1 100710 92
2007-02-22 08:52:53 51°20.855 2°39.048 13.7 20 7.1 100710 92
2007-02-22 08:52:58 51°20.857 2°39.017 12.9 277 7.1 100710 92
2007-02-22 08:53:03 51°20.859 2°38.987 14.3 23 7.1 100710 92
2007-02-22 08:53:08 51°20.86 2°38.956 14.6 282 7.1 100710 92
2007-02-22 08:53:13 51°20.861 2°38.925 14.2 21 7.1 100700 92
2007-02-22 08:53:18 51°20.862 2°38.894 12.7 282 7.1 100700 92
2007-02-22 08:53:23 51°20.863 2°38.863 11.8 21 7.1 100700 92
2007-02-22 08:53:28 51°20.865 2°38.832 12.1 283 7.1 100700 92
2007-02-22 08:53:33 51°20.866 2°38.801 13.5 246 7.1 100690 92
2007-02-22 08:53:38 51°20.867 2°38.77 11.5 284 7.1 100690 92
2007-02-22 08:53:43 51°20.868 2°38.739 13 20 7.1 100700 92
2007-02-22 08:53:48 51°20.869 2°38.708 12.2 285 7.1 100700 92
2007-02-22 08:53:53 51°20.87 2°38.677 12.5 22 7.1 100690 92
2007-02-22 08:53:58 51°20.872 2°38.646 12.4 287 7.1 100690 92
2007-02-22 08:54:03 51°20.873 2°38.615 12.3 249 7.1 100710 92
2007-02-22 08:54:08 51°20.874 2°38.584 12 283 7.1 100710 92
2007-02-22 08:54:13 51°20.875 2°38.553 12.7 22 7.1 100690 92
2007-02-22 08:54:18 51°20.876 2°38.522 12.2 283 7.1 100690 92
2007-02-22 08:54:23 51°20.877 2°38.491 13.3 23 7.1 100710 92
2007-02-22 08:54:28 51°20.879 2°38.46 11.4 286 7.1 100710 92
2007-02-22 08:54:33 51°20.88 2°38.429 11.1 19 7.1 100700 92
2007-02-22 08:54:38 51°20.882 2°38.398 11.3 285 7.1 100700 92
2007-02-22 08:54:43 51°20.883 2°38.367 12 22 7.1 100700 92
2007-02-22 08:54:48 51°20.885 2°38.337 12.4 284 7.1 100700 92
2007-02-22 08:54:53 51°20.886 2°38.306 12.4 24 7.1 100700 92
2007-02-22 08:54:58 51°20.887 2°38.274 10.6 282 7.1 100700 92
2007-02-22 08:55:03 51°20.889 2°38.243 12.7 20 7.1 100700 92
2007-02-22 08:55:08 51°20.89 2°38.212 12.4 284 7.1 100700 92
2007-02-22 08:55:13 51°20.891 2°38.181 12.8 243 7.1 100690 92
2007-02-22 08:55:18 51°20.892 2°38.15 12.2 284 7.1 100690 92
2007-02-22 08:55:23 51°20.894 2°38.118 12.3 244 7.1 100700 92
2007-02-22 08:55:28 51°20.895 2°38.088 12.9 279 7.1 100700 92
2007-02-22 08:55:33 51°20.896 2°38.056 12.3 243 7.1 100710 92
2007-02-22 08:55:38 51°20.897 2°38.025 13.4 282 7.1 100710 92
2007-02-22 08:55:43 51°20.898 2°37.994 13.5 246 7.1 100700 92
2007-02-22 08:55:48 51°20.9 2°37.963 10.1 279 7.1 100700 92
2007-02-22 08:55:53 51°20.901 2°37.932 12.4 243 7.1 100700 92
2007-02-22 08:55:58 51°20.902 2°37.901 10.9 281 7.1 100700 92
2007-02-22 08:56:03 51°20.903 2°37.87 12.1 246 7.1 100690 92
2007-02-22 08:56:08 51°20.905 2°37.839 12.7 286 7.1 100690 92
2007-02-22 08:56:13 51°20.906 2°37.808 11 24 7.1 100710 92
2007-02-22 08:56:18 51°20.908 2°37.777 12.4 284 7.1 100710 92
2007-02-22 08:56:23 51°20.908 2°37.746 10.9 20 7.1 100700 92
2007-02-22 08:56:28 51°20.911 2°37.715 14.1 -999 7.1 100700 92
2007-02-22 08:56:33 51°20.911 2°37.684 11.1 243 7.1 100690 92
2007-02-22 08:56:38 51°20.913 2°37.653 11.6 278 7.1 100690 92
2007-02-22 08:56:43 51°20.914 2°37.622 11 27 7.1 100690 92
2007-02-22 08:56:48 51°20.915 2°37.59 12.5 278 7.1 100690 92
2007-02-22 08:56:53 51°20.916 2°37.559 13 245 7.1 100700 92
2007-02-22 08:56:58 51°20.918 2°37.528 13.9 281 7.1 100700 92
2007-02-22 08:57:03 51°20.92 2°37.497 13.8 23 7.1 100700 92
2007-02-22 08:57:08 51°20.921 2°37.466 12.2 282 7.1 100700 92
2007-02-22 08:57:13 51°20.923 2°37.435 15.2 22 7.1 100690 92
2007-02-22 08:57:18 51°20.924 2°37.404 11.8 282 7.1 100690 92
2007-02-22 08:57:23 51°20.925 2°37.373 12.2 243 7.1 100690 92
2007-02-22 08:57:28 51°20.927 2°37.342 11.9 281 7.1 100690 92
2007-02-22 08:57:33 51°20.927 2°37.311 11.7 244 7.1 100700 92
2007-02-22 08:57:38 51°20.929 2°37.28 12.1 283 7.1 100700 92
2007-02-22 08:57:43 51°20.931 2°37.249 13.3 242 7.1 100700 92
2007-02-22 08:57:48 51°20.932 2°37.218 11.9 283 7.1 100700 92
2007-02-22 08:57:53 51°20.933 2°37.187 12.3 20 7.1 100700 92
2007-02-22 08:57:58 51°20.934 2°37.156 12.8 277 7.1 100700 92
2007-02-22 08:58:03 51°20.936 2°37.125 11 245 7.1 100700 92
2007-02-22 08:58:08 51°20.937 2°37.093 12.9 281 7.1 100700 92
2007-02-22 08:58:13 51°20.938 2°37.062 11.6 24 7.1 100690 92
2007-02-22 08:58:18 51°20.939 2°37.031 13.1 283 7.1 100690 92
2007-02-22 08:58:23 51°20.941 2°37 11.2 244 7.1 100710 92
2007-02-22 08:58:28 51°20.941 2°36.968 13.7 -999 7.1 100710 92
2007-02-22 08:58:33 51°20.943 2°36.937 11.7 245 7.1 100690 92
2007-02-22 08:58:38 51°20.944 2°36.906 12.1 282 7.1 100690 92
2007-02-22 08:58:43 51°20.945 2°36.874 10.9 243 7.1 100710 92
2007-02-22 08:58:48 51°20.947 2°36.843 12 285 7.1 100710 92
2007-02-22 08:58:53 51°20.948 2°36.812 12.8 243 7.1 100680 92
2007-02-22 08:58:58 51°20.95 2°36.78 11.2 282 7.1 100680 92
2007-02-22 08:59:03 51°20.951 2°36.749 14.1 22 7.1 100700 92
2007-02-22 08:59:08 51°20.953 2°36.718 13.3 282 7.1 100700 92
2007-02-22 08:59:13 51°20.954 2°36.687 13.2 245 7.1 100700 92
2007-02-22 08:59:18 51°20.956 2°36.655 12.6 277 7.1 100700 92
2007-02-22 08:59:23 51°20.957 2°36.624 11.9 244 7.1 100700 92
2007-02-22 08:59:28 51°20.958 2°36.593 11.6 278 7.1 100700 92
2007-02-22 08:59:33 51°20.959 2°36.561 11.6 23 7.1 100690 92
2007-02-22 08:59:38 51°20.961 2°36.53 12.1 286 7.1 100690 92
2007-02-22 08:59:43 51°20.962 2°36.499 11.3 241 7.1 100690 92
2007-02-22 08:59:48 51°20.963 2°36.468 13.7 281 7.1 100690 92
2007-02-22 08:59:53 51°20.964 2°36.437 13.2 245 7.1 100690 92
2007-02-22 08:59:58 51°20.965 2°36.405 11.9 286 7.1 100690 92
2007-02-22 09:00:03 51°20.967 2°36.374 13.6 245 7.1 100710 92
2007-02-22 09:00:08 51°20.968 2°36.343 12.1 282 7.1 100710 92
2007-02-22 09:00:13 51°20.969 2°36.312 12.8 22 7.1 100680 92
2007-02-22 09:00:18 51°20.971 2°36.281 14.1 281 7.1 100680 92
2007-02-22 09:00:23 51°20.973 2°36.249 13 244 7.1 100690 92
2007-02-22 09:00:28 51°20.974 2°36.218 11.8 -999 7.1 100690 92
2007-02-22 09:00:33 51°20.975 2°36.187 10.8 23 7.1 100700 92
2007-02-22 09:00:38 51°20.976 2°36.156 11.2 282 7.1 100700 92
2007-02-22 09:00:43 51°20.978 2°36.125 13 241 7.1 100690 92
2007-02-22 09:00:48 51°20.979 2°36.094 11.9 282 7.1 100690 92
2007-02-22 09:00:53 51°20.981 2°36.063 11.3 26 7.1 100680 92
2007-02-22 09:00:58 51°20.982 2°36.031 13.1 283 7.1 100680 92
2007-02-22 09:01:03 51°20.983 2°36 11.1 23 7.1 100680 92
2007-02-22 09:01:08 51°20.985 2°35.969 11.2 285 7.1 100680 92
2007-02-22 09:01:13 51°20.986 2°35.938 11.1 240 7.1 100690 92
2007-02-22 09:01:18 51°20.987 2°35.906 14.6 283 7.1 100690 92
2007-02-22 09:01:23 51°20.988 2°35.875 12.8 23 7.1 100690 92
2007-02-22 09:01:28 51°20.989 2°35.844 12.4 277 7.1 100690 92
2007-02-22 09:01:33 51°20.991 2°35.812 12.4 245 7.2 100680 92
2007-02-22 09:01:38 51°20.992 2°35.781 11 285 7.2 100680 92
2007-02-22 09:01:43 51°20.993 2°35.75 12.9 247 7.2 100690 92
2007-02-22 09:01:48 51°20.994 2°35.719 11.3 282 7.2 100690 92
2007-02-22 09:01:53 51°20.996 2°35.687 11.9 24 7.2 100680 92
2007-02-22 09:01:58 51°20.997 2°35.657 12.8 281 7.2 100680 92
2007-02-22 09:02:03 51°20.999 2°35.626 11.7 22 7.2 100690 92
2007-02-22 09:02:08 51°21 2°35.595 13.9 279 7.2 100690 92
2007-02-22 09:02:13 51°21.001 2°35.563 11.4 242 7.2 100690 92
2007-02-22 09:02:18 51°21.003 2°35.532 14.6 284 7.2 100690 92
2007-02-22 09:02:23 51°21.004 2°35.501 12.3 25 7.2 100700 92
2007-02-22 09:02:28 51°21.005 2°35.47 13.5 282 7.2 100700 92
2007-02-22 09:02:33 51°21.006 2°35.439 12.4 25 7.2 100690 92
2007-02-22 09:02:38 51°21.007 2°35.408 14.3 285 7.2 100690 92
2007-02-22 09:02:43 51°21.009 2°35.377 12.4 241 7.2 100680 92
2007-02-22 09:02:48 51°21.01 2°35.346 11.3 286 7.2 100680 92
2007-02-22 09:02:53 51°21.011 2°35.315 12 22 7.2 100690 92
2007-02-22 09:02:58 51°21.012 2°35.283 12.8 285 7.2 100690 92
2007-02-22 09:03:03 51°21.013 2°35.252 13.2 240 7.2 100690 92
2007-02-22 09:03:08 51°21.014 2°35.221 14.2 282 7.2 100690 92
2007-02-22 09:03:13 51°21.015 2°35.19 13.6 245 7.2 100690 92
2007-02-22 09:03:18 51°21.017 2°35.159 14.1 281 7.2 100690 92
2007-02-22 09:03:23 51°21.018 2°35.127 12 21 7.2 100680 92
2007-02-22 09:03:28 51°21.019 2°35.096 15.1 279 7.2 100680 92
2007-02-22 09:03:33 51°21.021 2°35.065 13.8 242 7.2 100670 92
2007-02-22 09:03:38 51°21.022 2°35.034 14.5 281 7.2 100670 92
2007-02-22 09:03:43 51°21.023 2°35.003 13.3 22 7.2 100660 92
2007-02-22 09:03:48 51°21.025 2°34.971 11.4 277 7.2 100660 92
2007-02-22 09:03:53 51°21.026 2°34.94 11.1 242 7.2 100670 92
2007-02-22 09:03:58 51°21.027 2°34.909 10.1 285 7.2 100670 92
2007-02-22 09:04:03 51°21.028 2°34.878 13.6 23 7.2 100670 92
2007-02-22 09:04:08 51°21.03 2°34.846 15.2 285 7.2 100670 92
2007-02-22 09:04:13 51°21.031 2°34.815 12.6 23 7.2 100690 92
2007-02-22 09:04:18 51°21.032 2°34.784 13.5 278 7.2 100690 92
2007-02-22 09:04:23 51°21.034 2°34.752 12.3 242 7.3 100690 92
2007-02-22 09:04:28 51°21.035 2°34.721 11.8 -999 7.3 100690 92
2007-02-22 09:04:33 51°21.036 2°34.69 11.3 241 7.3 100680 92
2007-02-22 09:04:38 51°21.038 2°34.659 15.6 283 7.3 100680 92
2007-02-22 09:04:43 51°21.039 2°34.628 13.1 245 7.3 100700 92
2007-02-22 09:04:48 51°21.04 2°34.596 13.1 287 7.3 100700 92
2007-02-22 09:04:53 51°21.041 2°34.565 11.6 23 7.3 100690 92
2007-02-22 09:04:58 51°21.043 2°34.534 13.5 284 7.3 100690 92
2007-02-22 09:05:03 51°21.044 2°34.503 13.1 246 7.3 100680 92
2007-02-22 09:05:08 51°21.045 2°34.472 11 286 7.3 100680 92
2007-02-22 09:05:13 51°21.046 2°34.44 12.7 242 7.3 100680 92
2007-02-22 09:05:18 51°21.047 2°34.409 13.4 280 7.3 100680 92
2007-02-22 09:05:23 51°21.049 2°34.377 12.7 244 7.3 100680 92
2007-02-22 09:05:28 51°21.05 2°34.346 13.6 283 7.3 100680 92
2007-02-22 09:05:33 51°21.052 2°34.315 15.5 246 7.3 100690 92
2007-02-22 09:05:38 51°21.053 2°34.283 12.4 284 7.3 100690 92
2007-02-22 09:05:43 51°21.055 2°34.252 14 22 7.3 100690 92
2007-02-22 09:05:48 51°21.056 2°34.221 11.5 284 7.3 100690 92
2007-02-22 09:05:53 51°21.058 2°34.19 15.2 244 7.3 100670 92
2007-02-22 09:05:58 51°21.059 2°34.158 14.4 285 7.3 100670 92
2007-02-22 09:06:03 51°21.06 2°34.127 14 25 7.3 100690 92
2007-02-22 09:06:08 51°21.061 2°34.095 12.8 281 7.3 100690 92
2007-02-22 09:06:13 51°21.063 2°34.064 12.8 245 7.3 100690 92
2007-02-22 09:06:18 51°21.064 2°34.033 14.6 281 7.3 100690 92
2007-02-22 09:06:23 51°21.066 2°34.001 12.8 26 7.3 100670 92
2007-02-22 09:06:28 51°21.067 2°33.97 14 283 7.3 100670 92
2007-02-22 09:06:33 51°21.068 2°33.939 12.4 27 7.3 100680 92
2007-02-22 09:06:38 51°21.07 2°33.907 12.8 281 7.3 100680 92
2007-02-22 09:06:43 51°21.071 2°33.876 12.5 243 7.3 100680 92
2007-02-22 09:06:48 51°21.072 2°33.845 11.4 286 7.3 100680 92
2007-02-22 09:06:53 51°21.073 2°33.813 12.6 239 7.4 100680 92
2007-02-22 09:06:58 51°21.075 2°33.782 13.5 285 7.4 100680 92
2007-02-22 09:07:03 51°21.076 2°33.75 13.6 240 7.4 100670 92
2007-02-22 09:07:08 51°21.077 2°33.719 12.7 278 7.4 100670 92
2007-02-22 09:07:13 51°21.079 2°33.687 15.2 21 7.4 100680 92
2007-02-22 09:07:18 51°21.08 2°33.656 15.5 281 7.4 100680 92
2007-02-22 09:07:23 51°21.082 2°33.624 14.8 244 7.4 100670 92
2007-02-22 09:07:28 51°21.083 2°33.593 12.4 284 7.4 100670 92
2007-02-22 09:07:33 51°21.084 2°33.562 14 241 7.4 100670 92
2007-02-22 09:07:38 51°21.086 2°33.53 14.1 281 7.4 100670 92
2007-02-22 09:07:43 51°21.087 2°33.499 14.8 243 7.4 100660 92
2007-02-22 09:07:48 51°21.088 2°33.468 16 286 7.4 100660 92
2007-02-22 09:07:53 51°21.089 2°33.437 12.8 246 7.4 100670 92
2007-02-22 09:07:58 51°21.091 2°33.406 13 278 7.4 100670 92
2007-02-22 09:08:03 51°21.092 2°33.375 13.9 24 7.4 100680 92
2007-02-22 09:08:08 51°21.094 2°33.344 11.9 286 7.4 100680 92
2007-02-22 09:08:13 51°21.095 2°33.312 11.3 244 7.4 100680 91
2007-02-22 09:08:18 51°21.096 2°33.281 14 285 7.4 100680 91
2007-02-22 09:08:23 51°21.097 2°33.25 12.9 20 7.4 100680 91
2007-02-22 09:08:28 51°21.099 2°33.219 12.6 282 7.4 100680 91
2007-02-22 09:08:33 51°21.101 2°33.188 13.5 247 7.4 100670 92
2007-02-22 09:08:38 51°21.104 2°33.158 10.8 279 7.4 100670 92
2007-02-22 09:08:43 51°21.108 2°33.128 10.4 251 7.4 100670 92